SCC: VIR: ST practice two times

Pos Num Class Team Time Gap To 1st Speed --- --- ----- ------------------------------ ---------- ------- ------- ------- 1. 22 ST HART 2:12.098 89.116 2. ...

Pos Num Class Team                                 Time     Gap  To 1st   Speed
--- --- ----- ------------------------------ ---------- ------- ------- -------
 1.  22 ST    HART                             2:12.098                  89.116
 2.  95 ST    Turner Motorsport                2:12.453   0.355   0.355  88.877
 3.  69 ST    SpeedSource                      2:12.491   0.038   0.393  88.851
 4.  01 ST    Georgian Bay Motorsports         2:12.519   0.028   0.421  88.833
 5.  75 ST    Kensai Racing                    2:12.891   0.372   0.793  88.584
 6.  76 ST    Kensai Racing                    2:13.090   0.199   0.992  88.451
 7. 126 ST    Fountain Motorsports             2:13.433   0.343   1.335  88.224
 8.  86 ST    Classic BMW - Plano              2:13.461   0.028   1.363  88.206
 9. 111 ST    ICY/ Phoenix Racing              2:13.598   0.137   1.500  88.115
10.  58 ST    BSI Racing                       2:13.640   0.042   1.542  88.087
11.  53 ST    Predator Auto Sport              2:13.660   0.020   1.562  88.074
12.  32 ST    i-MOTO Racing                    2:13.912   0.252   1.814  87.908
13.  56 ST    BSI Racing                       2:14.144   0.232   2.046  87.756
14.  74 ST    Kensai Racing                    2:14.147   0.003   2.049  87.754
15.  85 ST    Classic BMW - Plano              2:14.180   0.033   2.082  87.733
16. 127 ST    Fountain Motorsports             2:14.250   0.070   2.152  87.687
17.  27 ST    Bill Fenton Motorsports          2:14.391   0.141   2.293  87.595
18.  31 ST    i-MOTO Racing                    2:14.413   0.022   2.315  87.581
19. 174 ST    LRT Racing                       2:14.504   0.091   2.406  87.522
20. 141 ST    ICY/ Phoenix Racing              2:14.728   0.224   2.630  87.376
21. 133 ST    Kinetic Motorsports              2:14.867   0.139   2.769  87.286
22.  29 ST    Bill Fenton Motorsports          2:15.480   0.613   3.382  86.891
23. 197 ST    RSR Motorsports                  2:15.539   0.059   3.441  86.853
24.  24 ST    V-Pack Motorsport                2:15.752   0.213   3.654  86.717
25.  63 ST    Roar Racing                      2:15.951   0.199   3.853  86.590
26. 125 ST    Fountain Motorsports             2:16.654   0.703   4.556  86.145
27.  48 ST    Team Cobalt California           2:17.132   0.478   5.034  85.844
28.  64 ST    T Giovanis Motorsport            2:17.479   0.347   5.381  85.628
29. 138 ST    GS Motorsports                   2:18.099   0.620   6.001  85.243
30. 198 ST    RSR Motorsports                  2:20.481   2.382   8.383  83.798
31.  13 ST    SDS Performance Racing           2:29.098   8.617  17.000  78.955
32.  02 ST    Blackforest Motorsports          2:32.898   3.800  20.800  76.993
33.  68 ST    SpeedSource                      2:38.399   5.501  26.301  74.319
34.  62 ST    Roar Racing                       No Time
35.  00 ST    Georgian Bay Motorsports          No Time
36.  70 ST    SpeedSource                       No Time

Write a comment
Show comments
About this article
Series GRANDAM